Theta_e
288 290 289 288 287 287 284 285 282 285 286 289 293 295 296 297 300 300 300 302 302 301 303 305 307 309 309 308 307 306 309 307 306 305 305 305 306 306 306 307 308 309 309 311
283 289 289 286 287 288 288 288 288 290 288 296 298 298 298 299 300 300 301 303 303 304 306 309 310 311 310 309 309 309 306 305 306 307 306 306 306 306 306 307 307 307 308 310
277 285 286 281 286 289 290 293 292 287 292 297 296 297 297 297 300 301 301 303 304 304 305 306 308 309 309 310 311 309 306 308 308 307 307 307 308 307 306 305 305 305 307 308
278 280 273 284 295 295 292 293 294 293 293 296 295 297 299 302 298 299 301 302 302 304 304 303 307 307 306 307 307 307 306 307 308 309 308 308 307 306 306 305 305 305 306 306
275 272 282 288 293 292 290 290 295 293 295 295 296 295 295 302 300 299 299 301 302 304 303 303 302 303 303 303 303 304 305 306 308 309 308 308 307 307 306 303 302 303 304 305
275 274 271 288 295 299 297 285 295 294 292 292 292 285 289 296 298 299 300 300 300 299 299 298 298 300 298 300 301 301 303 305 306 306 307 307 307 306 305 304 304 305 304 303
281 281 283 293 294 298 283 283 294 295 293 291 289 292 295 296 297 298 299 299 301 301 300 300 299 298 297 298 298 301 302 304 304 305 304 304 305 304 302 302 303 302 303 304
283 282 276 295 293 286 291 295 295 294 293 291 292 292 293 294 294 295 296 297 298 298 299 300 299 298 298 298 300 301 301 301 302 303 304 305 303 302 302 302 301 302 301 302
286 282 291 292 293 295 294 293 294 294 295 295 292 291 294 294 293 293 295 295 296 296 296 297 298 299 297 299 300 300 300 301 301 302 303 303 302 302 302 303 303 302 302 302
285 290 290 292 294 295 296 296 296 298 295 293 292 292 291 290 292 292 294 294 295 294 294 295 296 297 298 299 301 301 300 301 301 301 301 302 302 302 302 302 302 302 303 303
286 289 291 294 294 295 296 298 295 296 294 294 292 291 290 291 291 292 293 293 294 293 294 294 297 298 299 300 300 299 299 299 300 301 301 302 304 304 304 305 304 304 306 307
281 288 288 291 295 296 296 297 296 295 294 293 292 291 292 291 291 291 291 292 293 294 294 295 297 297 299 300 300 299 299 299 300 301 302 303 303 304 299 299 299 297 299 305
288 291 293 294 296 298 297 297 299 296 295 292 292 292 291 290 290 291 291 291 292 293 294 295 296 297 298 300 300 300 299 299 300 300 301 302 302 303 303 301 297 296 296 297
292 294 291 294 292 296 297 299 299 296 296 294 293 293 292 290 290 289 289 290 292 293 293 295 296 296 299 300 300 300 300 298 300 301 302 302 303 302 302 304 304 304 297 297
294 294 294 295 296 297 299 298 296 294 294 293 293 292 291 289 288 289 290 291 292 292 293 295 295 296 298 299 299 299 300 302 304 305 306 306 306 304 303 303 304 306 307 296
294 294 293 294 295 297 296 297 295 293 293 292 292 291 291 290 289 288 289 291 290 289 292 292 293 295 297 298 299 302 303 298 298 305 312 308 307 304 303 304 306 308 309 305
291 290 292 294 294 295 295 296 296 294 294 293 291 291 290 288 287 287 288 289 289 289 290 291 292 296 299 298 296 296 297 299 296 314 316 313 308 307 307 308 310 312 309 308
294 295 296 295 294 294 295 296 296 296 294 292 292 290 287 286 285 285 286 288 288 289 290 292 294 293 292 292 293 294 296 299 307 319 317 317 315 316 314 315 314 314 313 304
296 295 296 296 295 294 295 295 295 296 295 293 290 286 286 286 286 286 286 286 286 286 289 291 291 290 291 291 292 294 298 304 317 317 317 308 317 317 316 317 317 317 318 318
294 295 295 294 295 294 294 295 295 295 294 293 289 286 285 285 285 285 286 285 287 287 288 288 288 289 290 291 291 296 301 309 319 318 318 318 318 317 315 307 315 314 313 312
294 293 293 293 293 293 294 294 294 294 294 293 287 285 284 285 285 285 284 284 286 287 287 288 290 291 294 294 297 301 309 321 319 319 318 317 316 314 313 312 311 310 308 306
292 291 293 294 292 292 293 293 294 294 293 291 287 285 285 284 285 285 286 284 286 286 288 292 296 293 298 292 303 310 321 319 319 317 315 313 311 309 307 307 305 303 302 301
290 291 293 292 292 291 292 292 293 294 291 290 286 285 284 284 284 282 281 285 286 286 289 290 289 287 287 306 318 320 318 316 314 312 309 307 305 304 302 301 300 299 297 296
290 292 291 293 292 291 289 291 292 293 291 291 289 287 285 283 284 285 285 285 285 286 287 286 289 291 298 309 311 310 309 306 304 302 301 297 300 299 297 296 294 293 292 291
289 291 292 292 291 290 290 291 292 292 290 290 289 288 286 285 283 284 285 285 285 286 286 286 287 290 297 299 301 300 302 303 301 299 298 297 296 294 293 293 292 291 290 290
288 288 289 291 292 291 290 290 291 291 289 288 288 288 287 285 284 284 284 284 285 285 285 285 286 288 290 291 293 294 296 295 295 294 293 293 292 291 290 290 289 289 288 288
288 289 288 290 293 293 290 290 291 290 289 288 287 287 287 285 284 283 283 282 282 283 283 284 284 285 286 287 288 289 290 290 290 291 290 290 289 289 288 288 287 287 287 287
Wind_Speed
6 7 8 11 14 14 11 12 8 15 17 16 6 10 7 4 6 11 13 6 6 7 7 5 4 3 4 3 6 3 8 13 12 12 10 9 8 8 8 7 7 6 5 5
11 8 9 12 12 14 16 15 7 6 8 5 8 6 8 8 9 9 7 5 6 5 7 1 5 5 2 3 4 3 5 8 8 11 12 11 9 8 7 8 8 7 7 7
5 3 6 7 3 4 4 5 2 3 4 10 10 8 10 7 6 5 5 5 6 7 5 7 8 8 6 6 5 6 6 7 7 8 8 9 10 9 10 10 8 8 8 7
4 4 1 6 8 4 4 7 5 3 5 5 8 12 15 8 4 6 8 8 8 7 7 8 8 7 8 8 10 11 10 9 8 8 11 11 11 13 12 9 11 10 10 10
2 3 7 5 8 8 7 1 7 8 10 11 11 12 8 2 4 11 11 11 11 11 12 8 5 7 5 6 7 7 10 10 11 11 12 11 12 13 12 9 8 9 8 11
3 2 5 2 9 8 4 6 9 6 9 12 13 10 11 11 16 17 15 12 12 9 8 7 8 8 7 7 8 8 7 7 7 8 10 13 14 13 12 10 12 9 11 10
2 5 6 5 12 10 2 5 14 10 8 10 11 11 18 20 20 18 16 16 15 14 14 14 10 7 8 7 10 11 11 11 12 12 10 9 10 9 10 11 9 9 10 9
2 4 7 2 6 1 4 8 10 11 13 14 15 16 21 22 19 21 22 19 17 14 12 12 10 8 11 15 14 12 12 16 18 17 14 13 10 8 6 7 8 9 9 10
6 7 3 2 5 0 3 7 11 14 17 15 17 24 26 21 19 21 24 21 20 17 16 13 11 12 16 15 11 13 16 16 15 14 15 13 11 11 8 9 11 11 10 11
4 1 4 12 3 3 8 11 13 15 11 17 21 25 23 23 18 18 18 14 14 14 15 17 14 14 16 14 13 13 14 16 15 15 15 15 13 12 13 13 12 11 11 12
5 7 9 2 10 11 15 15 15 14 15 17 23 22 21 19 19 17 17 14 13 14 16 18 17 16 14 15 15 16 17 17 17 14 15 14 13 12 12 13 13 12 12 11
5 3 4 13 14 19 18 14 17 15 15 18 23 21 21 17 16 16 16 15 15 16 16 17 17 17 17 15 16 17 17 13 13 13 12 12 12 12 19 18 17 18 16 12
5 6 12 16 16 19 16 20 17 16 14 18 21 16 21 16 15 20 18 16 16 16 16 16 16 17 16 17 17 18 17 14 13 16 13 14 14 12 11 12 19 17 17 19
6 7 8 7 13 20 21 21 13 13 15 14 22 14 17 14 17 16 16 15 16 17 17 16 17 19 17 17 15 19 17 15 16 17 17 17 18 16 13 11 8 9 13 16
10 12 12 17 18 19 16 15 17 16 15 18 21 16 17 17 17 16 16 15 15 16 15 14 16 18 16 15 16 16 13 12 14 15 17 17 18 18 15 13 10 9 5 7
12 13 14 13 18 17 19 19 16 16 14 18 22 20 18 17 16 16 15 13 13 12 14 15 15 16 16 15 14 13 11 19 18 13 3 7 10 15 15 13 10 10 7 7
11 13 15 16 17 19 19 17 15 17 15 19 24 19 19 19 17 14 14 13 13 15 14 14 15 13 14 12 13 11 9 13 17 4 6 7 8 9 11 11 10 8 9 10
10 13 13 14 15 16 17 18 17 20 13 23 21 19 20 17 17 17 16 15 14 14 12 11 11 10 14 14 13 12 8 10 11 4 7 8 10 8 12 12 13 10 8 5
11 13 14 15 15 15 15 17 17 20 15 20 19 20 17 15 16 15 14 13 13 13 10 11 17 16 13 15 14 9 8 9 2 8 11 11 10 12 10 13 13 11 11 12
10 11 14 15 15 14 15 15 17 19 18 18 18 18 20 19 17 16 15 13 10 10 15 15 14 12 12 13 12 9 9 7 10 9 10 11 12 12 11 12 14 12 12 12
10 11 14 16 15 15 14 15 16 20 19 18 18 19 19 18 15 14 13 10 16 17 19 18 9 6 6 6 6 7 7 8 11 12 12 10 12 13 13 13 12 12 11 11
6 9 13 13 13 15 15 15 16 18 20 18 18 18 19 18 16 15 11 11 13 20 12 8 5 4 4 5 4 3 9 12 11 11 12 12 12 12 11 11 11 11 11 10
5 7 10 12 13 14 15 14 17 15 19 17 17 18 19 14 11 14 16 21 15 18 12 12 15 4 3 2 5 10 11 13 12 12 12 11 11 11 11 11 11 11 10 9
6 8 9 11 10 12 16 16 16 13 16 15 16 15 15 13 11 10 10 14 20 16 13 16 16 17 14 10 11 12 12 12 12 12 12 13 11 11 11 10 11 10 10 12
5 7 9 11 11 9 12 14 14 13 17 15 16 14 18 12 11 14 15 15 21 18 14 23 25 21 13 11 12 12 11 10 10 11 11 11 10 11 11 11 11 10 10 10
4 5 5 8 7 6 7 9 9 10 12 13 12 13 13 13 13 13 13 16 15 17 15 15 15 14 13 12 12 12 11 11 11 11 12 11 12 11 11 11 11 11 10 10
5 5 5 8 8 8 7 8 8 11 11 12 12 12 11 11 13 14 16 14 13 14 13 13 14 16 13 12 11 11 11 11 12 11 10 11 11 11 11 11 11 11 10 10
Wind_Direction
264 262 273 276 280 279 247 241 238 276 263 265 316 328 326 317 311 280 265 286 278 301 295 315 5 317 273 262 240 248 235 192 205 207 206 203 196 202 204 196 210 211 224 244
285 262 265 276 284 282 271 269 261 296 323 345 306 310 317 316 337 4 6 17 8 358 342 153 213 197 185 279 319 15 212 276 239 212 207 204 203 204 205 214 217 216 221 220
275 248 297 286 228 281 316 15 298 299 347 335 288 308 293 276 305 316 319 297 304 299 294 279 238 234 213 246 265 262 224 246 239 216 233 214 208 208 209 215 216 222 231 230
260 19 256 235 24 83 16 79 93 202 250 310 343 323 305 282 220 284 291 284 282 273 274 245 255 250 236 233 239 241 247 244 232 218 217 218 217 217 218 211 212 216 222 225
145 192 287 318 27 354 334 329 22 352 335 328 323 303 288 93 316 314 288 278 267 258 257 268 251 242 248 259 264 265 266 256 249 229 226 220 224 225 222 209 200 203 205 217
82 171 237 13 340 313 347 255 24 3 344 333 332 308 297 305 295 290 285 283 285 287 279 267 256 236 232 225 222 229 234 247 258 259 256 241 229 225 216 208 210 210 222 211
188 240 279 13 307 306 247 292 343 333 309 300 298 284 292 294 290 286 278 278 276 275 275 266 248 244 239 243 251 271 273 267 258 257 251 248 247 222 207 209 214 212 227 229
223 245 268 267 313 227 318 320 306 299 288 294 295 298 300 290 287 296 292 289 287 286 277 274 263 241 257 263 265 253 256 262 259 253 246 246 229 225 216 208 217 228 239 255
196 225 179 224 236 69 250 279 292 305 300 300 310 307 306 298 299 288 284 289 286 279 285 279 282 274 271 268 259 260 264 256 252 256 254 243 234 227 216 214 225 232 236 246
5 235 271 306 158 277 314 302 308 303 319 309 301 305 303 298 292 294 284 285 290 292 291 283 274 273 266 261 258 260 261 257 255 248 245 246 247 242 235 231 227 226 235 246
266 292 315 277 340 316 304 304 298 289 315 318 309 304 302 299 299 292 291 292 287 280 276 277 278 271 265 265 264 261 259 256 253 251 247 240 233 230 231 229 226 228 225 227
248 300 256 285 304 301 305 293 291 293 311 318 311 299 298 297 297 292 291 288 282 273 274 273 273 272 269 266 262 259 256 252 247 244 236 232 230 232 224 223 214 217 219 218
268 299 282 277 283 286 299 299 295 289 291 316 317 299 302 297 294 300 294 290 282 282 279 281 283 280 278 270 263 259 256 256 259 250 239 228 222 228 224 214 220 211 215 221
273 330 298 293 298 301 296 295 284 282 286 304 320 304 303 293 300 294 293 294 291 285 281 278 276 274 275 272 275 270 268 248 254 251 245 230 216 206 208 229 190 209 215 225
330 318 291 291 293 296 301 311 303 296 307 323 331 317 313 304 306 303 297 289 285 283 283 283 282 281 283 284 280 283 281 266 254 264 261 241 211 185 186 202 209 218 194 202
320 309 299 299 301 322 327 321 314 312 316 320 322 321 314 306 303 304 300 301 295 289 287 280 277 283 288 292 293 286 293 288 286 288 315 71 110 150 173 186 194 209 206 197
316 316 313 319 332 327 324 327 325 316 308 330 325 323 316 317 316 313 308 301 293 288 284 283 281 290 301 319 317 292 309 302 306 294 91 119 134 149 171 181 173 148 132 142
298 295 315 323 319 322 325 328 330 327 328 323 321 324 323 316 318 319 312 308 299 294 290 282 292 319 311 302 294 298 301 291 295 97 102 75 109 110 114 113 107 112 103 72
319 328 325 326 329 324 326 328 331 329 324 325 332 324 326 322 320 318 311 309 304 305 305 309 303 301 292 289 297 289 298 312 61 84 97 100 101 98 104 101 105 99 108 101
327 332 335 334 331 332 328 329 331 328 336 337 331 328 333 331 327 324 322 316 306 305 305 301 295 287 282 280 281 282 301 297 110 97 89 90 97 94 89 83 94 90 88 86
335 340 342 340 339 334 332 333 330 330 341 342 340 337 335 330 332 334 331 333 337 327 315 304 275 258 252 247 250 287 317 100 105 104 99 88 84 83 83 85 86 91 87 84
341 337 345 340 340 334 334 333 333 333 345 344 340 341 342 347 346 351 350 348 327 330 326 327 328 217 234 208 243 285 78 81 89 84 87 86 85 86 82 82 84 82 79 77
341 330 337 342 342 335 331 343 337 341 350 349 345 348 351 345 342 352 351 346 346 342 356 360 2 37 172 241 90 84 78 75 78 80 80 80 80 82 82 81 79 81 80 79
339 343 339 334 340 347 345 338 336 350 351 352 350 350 354 353 354 360 346 343 351 359 13 9 15 27 44 49 57 69 73 76 76 75 78 76 77 77 75 79 80 80 81 81
331 324 341 342 351 349 337 334 334 354 353 358 0 358 1 4 2 348 352 354 2 10 14 17 24 28 35 40 52 58 62 73 80 85 84 86 87 85 82 81 81 85 85 83
337 326 319 324 340 345 339 337 344 357 353 354 4 2 4 1 0 0 1 0 8 14 20 18 21 25 28 35 44 51 61 67 72 74 84 85 88 87 87 88 86 86 88 89
345 349 340 352 3 5 355 350 351 1 2 358 360 4 13 5 4 5 5 12 14 16 21 21 23 25 26 31 39 49 56 62 67 80 84 89 87 88 90 90 91 91 92 93